GFSNE_500_spd_036.txt.gz
Wind_Speed
61 59 56 62 67 64 67 51 47 42 36 38 43 46 48 47 47 45 43 45 51 59 68 76 82 84 85 85 87 83 82 78 82 79 83 88 87 83
58 61 64 67 64 69 52 50 50 49 41 37 38 41 45 46 47 46 43 42 42 46 58 70 77 82 85 85 77 68 75 78 79 79 81 84 88 88
55 54 62 60 54 48 51 52 51 52 52 47 44 44 45 48 49 48 48 46 43 44 45 56 69 78 83 87 86 72 67 73 80 81 81 80 82 88
61 62 52 46 48 51 52 53 52 52 53 52 47 48 51 51 52 51 51 51 48 47 46 47 52 64 78 85 89 94 89 79 75 79 81 82 83 85
55 43 47 49 50 52 51 50 49 48 49 50 47 47 49 52 54 55 55 54 52 50 48 47 50 53 62 76 86 91 90 98 84 72 74 78 80 82
42 46 48 50 50 49 47 44 44 43 43 44 43 45 48 48 51 52 54 56 56 54 51 49 49 51 53 60 73 81 85 94 96 95 86 75 82 83
45 46 50 47 48 44 40 38 42 44 46 47 46 44 44 46 48 48 50 52 53 55 55 53 50 49 50 52 59 71 85 91 82 89 84 81 77 82
46 47 43 44 40 37 40 44 46 46 45 46 44 44 43 41 43 44 42 42 44 50 53 53 52 50 48 49 51 55 70 76 89 81 84 85 84 86
47 41 40 37 34 37 40 41 43 43 41 40 37 37 33 34 37 39 40 38 35 37 44 48 50 50 50 47 49 50 52 65 80 88 88 89 87 89
44 39 37 31 33 35 36 39 41 39 35 33 32 29 25 27 29 31 36 37 35 36 38 41 46 47 49 46 45 47 49 51 57 68 85 91 91 89
38 37 32 30 32 33 35 37 39 36 31 27 24 21 18 20 24 26 28 32 33 34 34 34 41 43 44 43 43 42 45 50 53 54 56 68 79 90
34 34 30 28 29 30 33 36 36 32 26 24 18 14 12 16 19 21 24 26 26 25 28 29 37 39 40 39 39 39 39 42 46 50 54 53 57 73
29 29 26 25 26 27 30 33 33 30 24 22 17 11 8 5 7 11 12 14 17 21 21 24 30 32 33 33 34 35 35 37 39 43 46 49 55 53
26 26 22 22 24 23 27 30 31 29 25 23 20 15 10 5 2 5 9 12 14 14 16 19 21 24 25 27 29 31 33 34 37 40 43 45 51 58
27 26 21 19 21 21 22 26 28 25 24 19 17 15 13 11 9 9 10 12 12 14 14 15 17 19 21 25 27 29 33 37 39 42 44 46 49 52
28 26 24 19 19 21 20 20 22 22 19 17 15 12 9 7 7 8 9 9 10 10 10 11 12 14 17 20 23 26 30 35 41 46 51 53 54 55
27 25 27 20 18 18 18 18 18 18 15 13 12 11 10 9 9 10 10 10 10 10 10 10 10 9 9 11 12 13 15 17 23 32 42 49 53 55
29 25 25 23 19 18 17 16 15 14 13 11 9 8 7 8 9 10 11 12 13 14 13 13 12 10 8 8 7 5 3 1 3 5 9 22 38 47
31 25 23 22 20 18 17 16 15 13 11 10 8 5 4 4 3 5 6 6 7 8 9 9 8 7 6 5 5 5 4 4 4 4 5 4 9 23
33 29 25 23 21 19 18 18 16 14 12 11 9 8 5 2 0 1 2 3 4 4 4 5 5 4 3 3 2 3 4 5 5 4 3 3 2 3
33 32 30 26 23 21 19 18 19 18 15 13 13 12 10 9 7 6 6 6 6 6 6 6 6 6 5 3 3 1 1 2 4 4 3 3 5 6
30 32 32 30 26 22 21 19 18 19 20 18 15 15 15 13 12 12 11 11 11 10 10 9 9 8 8 7 6 5 4 3 2 2 2 2 2 5
28 30 32 32 31 26 21 21 20 19 19 21 22 18 17 17 16 16 15 15 15 14 13 13 12 12 12 11 10 9 9 8 7 5 5 5 5 4

GFSNE_500_spd_042.txt.gz
Wind_Speed
95 81 62 53 47 46 45 44 44 41 38 37 42 46 47 48 47 47 47 44 43 44 46 50 56 65 80 97 100 100 97 91 81 72 69 74 86 90
73 56 48 46 46 47 46 46 46 48 48 41 41 46 48 48 48 47 48 47 45 44 44 47 49 55 62 73 86 95 97 94 82 74 60 63 72 84
54 46 43 45 46 46 47 48 46 47 48 39 42 44 46 46 47 49 49 49 48 47 45 46 48 51 56 63 71 79 86 92 86 83 79 70 73 80
44 43 44 46 47 47 46 46 47 44 44 42 38 39 40 41 42 43 42 43 46 50 48 45 47 50 52 57 64 73 79 82 86 87 84 61 58 66
42 43 44 47 48 45 45 46 42 41 39 37 38 41 41 43 43 46 47 45 41 44 49 51 49 49 51 53 59 68 75 79 84 90 100 84 66 63
41 43 45 49 47 44 45 41 39 35 36 38 37 41 44 45 46 44 46 46 44 43 42 49 53 50 51 52 53 57 66 71 73 90 93 96 75 74
41 43 46 49 45 45 43 37 34 33 36 37 40 43 45 45 43 41 42 43 42 43 44 42 50 55 54 53 53 53 54 63 75 83 94 97 93 85
40 43 47 46 44 43 35 34 31 32 33 37 41 43 42 42 39 37 35 37 38 40 43 43 46 54 56 55 55 52 52 53 62 77 82 95 99 99
40 43 46 43 43 39 31 29 30 31 33 38 40 40 39 37 35 31 31 32 34 36 40 43 44 50 54 56 55 54 52 51 52 62 76 85 96 98
38 43 42 41 40 32 29 25 28 30 33 38 38 36 35 32 28 24 24 23 24 26 31 34 41 44 49 55 54 54 54 53 52 54 60 76 85 97
38 40 40 39 35 29 28 23 27 28 32 35 34 33 32 28 23 18 13 12 12 17 23 26 33 36 42 47 52 54 54 53 52 51 54 59 73 87
37 37 37 35 30 28 26 21 25 26 29 32 32 32 29 27 19 13 8 8 9 12 18 21 25 28 32 38 44 49 53 53 52 51 50 53 58 67
35 34 34 30 26 26 24 21 22 24 27 29 29 29 27 26 20 12 6 5 7 11 14 19 23 24 27 29 36 43 48 51 52 51 50 48 50 55
31 31 30 28 25 23 23 20 21 22 23 26 26 27 26 22 22 15 7 4 7 10 14 18 22 25 27 28 31 36 43 46 48 49 48 47 47 49
29 29 28 27 25 23 23 20 19 20 21 23 24 25 24 23 18 16 12 6 0 5 9 15 19 22 24 26 27 30 36 40 41 42 43 44 45 44
26 26 28 27 26 24 21 21 18 18 19 20 22 22 22 21 19 13 10 9 5 3 5 8 12 14 16 16 18 22 27 31 34 36 38 40 42 41
25 25 25 28 28 25 22 20 19 17 17 17 18 19 19 19 18 16 10 4 2 2 4 7 9 11 12 14 16 20 23 26 28 31 33 37 39 41
24 24 24 26 28 28 25 21 19 17 16 15 16 16 16 16 15 14 12 7 2 2 4 7 8 9 11 12 15 16 19 22 24 27 29 32 35 38
23 23 23 24 26 28 27 23 20 18 17 16 15 14 14 14 13 12 10 7 5 3 5 8 8 9 10 11 14 16 18 20 22 24 26 29 34 40
23 22 23 23 24 25 27 27 23 19 18 16 15 15 14 13 12 11 9 5 2 1 4 6 7 9 10 10 11 11 12 12 13 14 15 18 16 11
23 22 23 23 24 24 23 25 26 24 20 18 17 15 15 15 14 12 11 10 7 6 5 6 6 8 9 9 10 11 12 12 12 12 13 12 11 7
23 23 23 23 24 23 23 22 23 25 24 20 18 18 16 17 17 16 15 13 14 12 12 11 11 11 11 12 12 12 12 13 13 12 11 10 8 7
25 25 24 24 24 24 23 22 22 23 24 25 21 19 18 18 19 21 19 19 17 18 18 17 17 17 16 16 15 15 15 15 15 14 14 12 10 7

GFSNE_500_spd_045.txt.gz
Wind_Speed
93 93 88 79 70 59 52 50 53 52 49 47 45 47 49 51 50 50 49 46 45 48 47 49 48 50 56 65 78 89 99 100 99 97 96 91 77 91
90 84 74 65 55 50 49 50 52 54 52 45 42 46 47 47 48 48 49 47 46 47 48 49 48 44 45 53 62 73 82 95 98 95 93 89 88 77
79 71 63 53 47 47 48 49 52 52 49 43 43 42 43 44 44 44 45 46 44 46 51 49 47 46 43 46 52 60 69 76 92 94 91 87 85 78
70 62 51 46 45 46 48 51 54 49 48 46 37 39 37 40 41 43 44 45 44 45 47 47 47 47 47 43 48 53 59 65 73 87 86 86 82 82
61 51 43 43 44 46 49 53 50 47 47 41 35 34 37 38 41 45 47 47 46 45 46 47 45 48 49 46 48 52 54 59 64 74 80 79 79 78
51 42 40 42 44 47 50 50 47 45 39 37 33 33 36 40 45 46 47 46 45 42 43 45 47 43 45 50 48 52 54 54 58 69 76 78 76 74
42 38 40 42 44 47 51 47 45 37 35 32 32 33 39 43 45 45 45 43 40 37 37 40 45 45 43 49 51 52 53 53 54 59 74 81 82 75
36 37 39 42 44 48 44 43 38 33 31 31 32 34 40 42 42 42 42 39 35 32 31 34 41 43 44 45 54 52 53 53 51 53 64 82 90 96
34 36 38 42 45 45 42 38 31 33 29 30 32 36 39 39 39 39 37 35 31 28 28 30 36 40 44 44 50 52 53 53 51 49 57 67 89 99
34 35 37 41 43 41 39 34 32 30 28 31 32 35 37 37 36 36 32 29 24 22 24 28 33 37 41 41 43 53 55 53 51 49 51 61 71 92
32 34 36 41 40 40 36 31 31 27 26 29 29 32 34 34 32 32 27 19 16 16 16 18 24 33 38 39 40 49 56 54 51 49 48 59 72 69
32 34 34 37 37 36 33 30 29 25 24 27 28 30 31 31 29 29 21 15 13 12 14 13 15 19 24 29 36 44 53 53 52 50 48 48 58 69
30 31 34 34 35 33 30 27 27 24 23 24 25 27 29 29 28 24 20 14 11 9 8 8 12 14 18 26 31 38 46 51 50 49 48 47 47 54
28 29 30 31 31 31 29 26 24 23 21 22 24 25 27 27 26 21 20 13 8 7 6 6 6 9 15 20 24 31 38 44 48 49 48 48 48 47
27 27 28 28 29 30 28 27 25 24 21 20 22 23 25 25 24 22 16 15 9 5 5 8 9 10 13 15 18 23 28 36 41 45 47 47 46 45
26 26 27 27 26 28 28 26 24 22 22 19 19 21 22 23 23 22 19 12 10 8 4 3 7 12 15 17 19 21 24 29 34 38 41 44 45 44
26 26 26 26 25 26 28 28 26 23 20 19 18 18 19 20 21 20 19 16 9 6 5 3 1 5 8 10 14 18 21 23 26 31 34 36 39 41
26 26 25 25 24 25 26 28 28 25 22 19 18 17 17 17 18 19 17 16 13 7 4 1 1 3 6 8 10 13 17 19 20 23 26 29 32 36
27 26 25 25 24 24 24 25 26 27 25 21 18 18 17 16 15 16 15 13 13 10 5 1 2 4 7 9 11 12 13 15 17 19 21 23 26 29
26 25 25 25 25 24 24 24 24 25 26 24 21 17 17 17 16 14 14 13 10 9 6 2 1 2 4 7 10 13 14 15 17 18 19 21 23 26
26 26 25 25 25 25 24 24 23 24 24 24 23 20 17 16 16 16 14 12 11 9 8 5 2 3 4 6 8 10 12 13 14 14 15 16 17 17
25 25 25 26 25 25 25 24 23 22 22 23 24 23 20 17 17 17 18 16 13 12 11 10 8 7 6 6 7 8 9 11 12 14 15 15 15 16
27 26 26 27 27 27 26 25 24 23 23 23 23 23 23 21 17 18 18 19 19 16 14 14 14 13 12 11 11 10 11 12 13 13 14 14 14 13

GFSNE_500_spd_048.txt.gz
Wind_Speed
89 92 93 95 87 77 67 60 55 51 46 45 47 49 50 48 48 48 48 47 46 45 46 47 49 49 47 50 57 66 76 88 102 106 106 105 99 96
90 93 94 85 75 66 57 50 47 50 50 49 48 51 49 46 47 46 44 45 46 45 47 48 50 48 48 48 47 51 56 66 80 90 99 102 99 97
91 96 91 77 67 57 48 44 45 49 50 48 51 47 47 46 42 42 42 43 42 41 40 43 48 49 49 48 49 48 49 54 62 73 82 91 96 95
92 89 79 71 58 47 42 43 46 48 52 53 46 45 43 40 40 39 38 40 41 42 43 44 46 45 47 49 49 48 49 48 54 62 70 77 90 91
86 75 68 60 46 39 40 43 46 49 53 50 44 41 37 36 36 36 39 41 43 44 43 45 46 46 46 45 45 50 48 47 49 54 62 73 80 89
73 65 57 48 39 37 40 43 46 51 48 45 40 35 33 33 34 36 39 42 44 44 44 44 43 44 44 44 43 48 49 48 46 49 54 66 75 81
64 55 47 41 36 37 41 43 49 47 44 40 35 33 31 31 34 38 42 43 42 44 42 39 39 40 41 42 44 43 48 48 45 46 47 60 70 75
56 46 40 36 36 37 40 44 44 42 38 34 33 30 30 31 35 39 41 42 39 43 41 34 35 34 36 40 42 43 43 48 46 44 45 54 66 69
49 40 35 34 34 38 43 44 42 40 35 32 30 29 30 32 35 37 40 39 39 36 36 27 30 29 31 35 38 40 37 45 47 44 44 48 61 74
42 35 31 33 34 38 41 40 39 37 34 33 30 28 30 32 34 36 37 35 35 31 27 21 24 24 28 30 33 35 36 39 48 45 44 45 53 69
36 31 29 32 35 37 38 38 37 35 33 31 27 26 29 30 33 34 35 33 28 22 22 17 17 16 22 26 31 34 37 37 46 46 45 44 48 62
33 29 28 31 32 35 34 35 34 32 30 29 25 25 27 28 31 32 31 29 24 17 16 14 14 11 11 18 26 30 34 36 44 46 44 44 49 57
29 28 27 28 30 32 32 33 33 30 28 26 24 23 25 26 29 29 28 25 21 16 13 11 10 8 6 10 19 27 30 33 39 46 45 44 45 54
28 27 28 27 29 30 30 30 32 31 28 25 23 21 22 24 26 27 26 21 20 14 11 9 7 4 3 10 12 14 24 29 37 44 44 43 44 47
26 26 26 26 28 28 28 28 31 32 30 25 23 20 20 21 23 25 23 20 16 16 11 7 6 3 1 4 7 11 19 26 35 42 43 42 42 44
27 25 26 26 26 26 27 27 28 29 30 27 22 21 19 19 20 22 21 20 15 11 11 8 5 5 5 5 6 9 12 19 28 36 41 41 42 42
28 26 26 26 26 25 25 25 26 27 28 29 25 20 19 17 17 18 20 18 17 12 9 8 7 3 1 5 7 9 12 16 23 30 36 40 41 42
26 26 27 26 26 25 24 24 24 25 26 27 27 23 19 18 16 15 16 17 15 14 10 7 5 3 1 4 7 9 13 16 20 23 28 34 39 41
27 26 25 26 25 24 24 24 23 24 24 25 25 25 21 18 17 14 13 14 13 12 12 9 6 3 2 1 4 7 9 11 15 19 22 25 30 34
27 26 25 25 25 25 24 23 23 23 23 23 23 24 24 21 17 15 14 12 11 10 9 9 8 6 3 3 6 7 8 10 13 15 18 21 24 28
28 26 26 25 25 25 25 24 24 23 23 22 22 22 23 22 20 16 14 13 11 9 8 7 7 6 4 2 4 7 9 10 12 14 16 18 20 22
29 28 27 26 26 25 25 26 26 25 24 23 22 23 23 22 21 19 15 14 13 12 10 9 7 6 5 4 3 5 7 9 11 13 15 17 18 19
29 29 29 28 27 26 26 26 26 26 26 25 23 23 23 22 21 19 18 15 15 14 14 13 11 9 8 8 7 5 7 8 10 12 14 15 15 16